Weather History for ROAH - November, 2012

Change the Weather History Date:

Sunday, November 11, 2012

  Actual Average Record
Temperature  
Mean Temperature 72 °F -  
Max Temperature 75 °F 73 °F 84 °F (1996)
Min Temperature 69 °F 65 °F 41 °F (1997)
Cooling Degree Days 7    
Growing Degree Days 22 (Base 50)    
Moisture  
Dew Point 66 °F    
Average Humidity 79    
Maximum Humidity 94    
Minimum Humidity 64    
Precipitation  
Precipitation 0.00 in - - ()
Sea Level Pressure  
Sea Level Pressure 29.97 in    
Wind  
Wind Speed 16 mph ()    
Max Wind Speed 22 mph    
Max Gust Speed 33 mph    
Visibility 4.6 miles    
Events Rain    
Averages and records for this station are not official NWS values.
T = Trace of Precipitation, MM = Missing Value Source: Averaged Metar Reports

Daily Weather History Graph

Daily Weather History Graph

Search for Another Location

Airport or City:

Trip Planner

Search our weather history database for the weather conditions in past years. The results will help you decide how hot, cold, wet, or windy it might be!

Date:

Astronomy

Nov. 11, 2012 Rise Set
Actual Time 6:45 AM JST 5:41 PM JST
Civil Twilight 6:20 AM JST 6:05 PM JST
Nautical Twilight 5:53 AM JST 6:33 PM JST
Astronomical Twilight 5:25 AM JST 7:00 PM JST
Moon 3:33 AM JST (11/11) 3:29 PM JST (11/11)
Length of Visible Light 11h 44m
Length of Day
10h 56m
Waning Crescent, 11% of the Moon is Illuminated
Nov 11
Waning Crescent
Nov 14
New
Nov 20
First Quarter
Nov 28
Full
Dec 7
Last Quarter

Hourly Weather History & Observations

Time (JST) Temp. Dew Point Humidity Pressure Visibility Wind Dir Wind Speed Gust Speed Precip Events Conditions
12:00 AM 75.2 °F 68.0 °F 78% 29.95 in 6.2 mi South 12.7 mph - N/A   Mostly Cloudy
12:30 AM 75.2 °F 68.0 °F 78% 29.95 in 6.2 mi South 15.0 mph - N/A   Mostly Cloudy
1:00 AM 75.2 °F 68.0 °F 78% 29.95 in 6.2 mi South 16.1 mph - N/A   Mostly Cloudy
1:30 AM 75.2 °F 68.0 °F 78% 29.92 in 6.2 mi South 16.1 mph - N/A   Mostly Cloudy
2:00 AM 75.2 °F 68.0 °F 78% 29.92 in 6.2 mi South 16.1 mph - N/A   Mostly Cloudy
2:30 AM 75.2 °F 69.8 °F 83% 29.92 in 6.2 mi South 17.3 mph - N/A   Mostly Cloudy
3:00 AM 75.2 °F 68.0 °F 78% 29.89 in 6.2 mi South 17.3 mph - N/A   Mostly Cloudy
3:30 AM 75.2 °F 69.8 °F 83% 29.89 in 6.2 mi South 17.3 mph - N/A   Mostly Cloudy
4:00 AM 75.2 °F 69.8 °F 83% 29.89 in 6.2 mi South 16.1 mph - N/A   Mostly Cloudy
4:30 AM 75.2 °F 69.8 °F 83% 29.89 in 6.2 mi South 17.3 mph - N/A   Mostly Cloudy
5:00 AM 75.2 °F 69.8 °F 83% 29.89 in 6.2 mi SSW 18.4 mph - N/A   Mostly Cloudy
5:16 AM 75.2 °F 71.6 °F 89% 29.89 in 2.5 mi SSW 19.6 mph - N/A Rain Rain Showers
5:30 AM 75.2 °F 69.8 °F 83% 29.89 in 1.2 mi SSW 17.3 mph - N/A Rain Rain Showers
5:34 AM 75.2 °F 71.6 °F 89% 29.89 in 0.6 mi SW 17.3 mph - N/A Rain Rain Showers
5:36 AM 75.2 °F 69.8 °F 83% 29.89 in 0.6 mi SW 17.3 mph - N/A Rain Rain Showers
5:38 AM 75.2 °F 69.8 °F 83% 29.89 in 0.6 mi SW 18.4 mph - N/A Rain Rain Showers
5:39 AM 75.2 °F 69.8 °F 83% 29.89 in 0.6 mi SW 18.4 mph - N/A Rain Rain Showers
5:40 AM 75.2 °F 69.8 °F 83% 29.89 in 0.6 mi SW 19.6 mph - N/A Rain Rain Showers
5:42 AM 75.2 °F 69.8 °F 83% 29.89 in 2.5 mi SW 20.7 mph - N/A Rain Rain Showers
6:00 AM 75.2 °F 69.8 °F 83% 29.89 in 6.2 mi SSW 19.6 mph - N/A Rain Light Rain
6:30 AM 75.2 °F 69.8 °F 83% 29.92 in 3.1 mi SW 17.3 mph - N/A Rain Light Rain Showers
6:40 AM 75.2 °F 69.8 °F 83% 29.92 in 1.2 mi SW 18.4 mph - N/A Rain Heavy Rain Showers
7:00 AM 73.4 °F 69.8 °F 88% 29.92 in 2.5 mi SSW 17.3 mph - N/A Rain Rain Showers
7:15 AM 73.4 °F 69.8 °F 88% 29.92 in 1.2 mi SSW 16.1 mph - N/A Rain Rain Showers
7:30 AM 75.2 °F 71.6 °F 89% 29.92 in 1.2 mi SSW 17.3 mph - N/A Rain Heavy Rain Showers
8:00 AM 71.6 °F 68.0 °F 88% 29.98 in 0.6 mi WNW 21.9 mph 33.4 mph N/A Rain Heavy Rain Showers
8:03 AM 71.6 °F 68.0 °F 88% 29.98 in 0.6 mi WNW 21.9 mph 33.4 mph N/A Rain Heavy Rain Showers
8:05 AM 71.6 °F 68.0 °F 88% 29.98 in 0.6 mi NW 19.6 mph 33.4 mph N/A Rain Heavy Rain Showers
8:06 AM 71.6 °F 68.0 °F 88% 29.98 in 0.6 mi NW 18.4 mph 29.9 mph N/A Rain Heavy Rain Showers
8:20 AM 69.8 °F 68.0 °F 94% 29.98 in 1.2 mi North 15.0 mph - N/A Rain Heavy Rain Showers
8:24 AM 71.6 °F 68.0 °F 88% 29.98 in 1.2 mi North 15.0 mph - N/A Rain Heavy Rain Showers
8:30 AM 71.6 °F 68.0 °F 88% 29.98 in 1.2 mi North 13.8 mph - N/A Rain Heavy Rain Showers
8:40 AM 71.6 °F 68.0 °F 88% 29.98 in 6.2 mi North 13.8 mph - N/A Rain Rain Showers
9:00 AM 71.6 °F 68.0 °F 88% 29.98 in 6.2 mi North 11.5 mph - N/A Rain Light Rain Showers
9:30 AM 71.6 °F 68.0 °F 88% 30.01 in 6.2 mi North 10.4 mph - N/A   Mostly Cloudy
10:00 AM 73.4 °F 69.8 °F 88% 30.01 in 6.2 mi NNE 6.9 mph - N/A   Mostly Cloudy
10:30 AM 73.4 °F 68.0 °F 83% 30.01 in 6.2 mi NNE 8.1 mph - N/A   Mostly Cloudy
11:00 AM 73.4 °F 68.0 °F 83% 30.01 in 6.2 mi North 19.6 mph - N/A   Mostly Cloudy
11:30 AM 73.4 °F 68.0 °F 83% 30.01 in 6.2 mi North 20.7 mph - N/A   Mostly Cloudy
12:00 PM 75.2 °F 68.0 °F 78% 30.01 in 6.2 mi North 20.7 mph - N/A   Scattered Clouds
12:30 PM 73.4 °F 66.2 °F 78% 29.98 in 6.2 mi North 20.7 mph - N/A   Mostly Cloudy
1:00 PM 73.4 °F 64.4 °F 73% 29.98 in 6.2 mi North 19.6 mph - N/A   Mostly Cloudy
1:30 PM 73.4 °F 66.2 °F 78% 29.98 in 6.2 mi North 20.7 mph - N/A   Mostly Cloudy
2:00 PM 73.4 °F 64.4 °F 73% 29.98 in 6.2 mi North 19.6 mph - N/A   Mostly Cloudy
2:30 PM 73.4 °F 64.4 °F 73% 29.98 in 6.2 mi North 20.7 mph - N/A   Mostly Cloudy
3:00 PM 73.4 °F 62.6 °F 69% 29.98 in 6.2 mi North 20.7 mph - N/A   Mostly Cloudy
3:30 PM 73.4 °F 62.6 °F 69% 29.98 in 6.2 mi North 21.9 mph - N/A   Mostly Cloudy
4:00 PM 73.4 °F 60.8 °F 65% 29.98 in 6.2 mi North 19.6 mph - N/A   Mostly Cloudy
4:30 PM 71.6 °F 60.8 °F 69% 30.01 in 6.2 mi North 20.7 mph - N/A   Mostly Cloudy
5:00 PM 73.4 °F 60.8 °F 65% 29.98 in 6.2 mi North 18.4 mph - N/A Rain Light Rain Showers
5:30 PM 71.6 °F 62.6 °F 73% 30.01 in 6.2 mi North 18.4 mph - N/A   Mostly Cloudy
6:00 PM 71.6 °F 62.6 °F 73% 30.01 in 6.2 mi North 19.6 mph - N/A   Mostly Cloudy
6:30 PM 71.6 °F 60.8 °F 69% 30.01 in 6.2 mi North 18.4 mph - N/A   Mostly Cloudy
7:00 PM 71.6 °F 62.6 °F 73% 30.04 in 6.2 mi North 19.6 mph - N/A   Mostly Cloudy
7:30 PM 71.6 °F 60.8 °F 69% 30.04 in 6.2 mi North 20.7 mph - N/A   Mostly Cloudy
8:00 PM 71.6 °F 60.8 °F 69% 30.04 in 6.2 mi North 21.9 mph - N/A   Mostly Cloudy
8:30 PM 71.6 °F 60.8 °F 69% 30.06 in 6.2 mi North 19.6 mph - N/A   Mostly Cloudy
9:00 PM 71.6 °F 60.8 °F 69% 30.06 in 6.2 mi North 20.7 mph - N/A   Mostly Cloudy
9:30 PM 69.8 °F 60.8 °F 73% 30.06 in 6.2 mi North 21.9 mph - N/A   Mostly Cloudy
10:00 PM 69.8 °F 60.8 °F 73% 30.06 in 6.2 mi North 21.9 mph - N/A   Mostly Cloudy
10:30 PM 69.8 °F 60.8 °F 73% 30.06 in 6.2 mi North 21.9 mph - N/A   Mostly Cloudy
11:00 PM 69.8 °F 59.0 °F 68% 30.09 in 6.2 mi North 20.7 mph - N/A   Mostly Cloudy
11:30 PM 69.8 °F 57.2 °F 64% 30.09 in 6.2 mi North 20.7 mph - N/A   Mostly Cloudy